Change the Weather History Date:

Friday, October 5, 2012

  Actual Average Record
Temperature  
Mean Temperature 53 °F -  
Max Temperature 64 °F 73 °F 88 °F (1969)
Min Temperature 42 °F 45 °F 29 °F (1987)
Degree Days  
Heating Degree Days 12    
Growing Degree Days 3 (Base 50)    
Moisture  
Dew Point 48 °F    
Average Humidity 89    
Maximum Humidity 100    
Minimum Humidity 63    
Precipitation  
Precipitation 0.28 in - - ()
Sea Level Pressure  
Sea Level Pressure 30.17 in    
Wind  
Wind Speed 4 mph (North)    
Max Wind Speed 18 mph    
Max Gust Speed 21 mph    
Visibility 11 miles    
Events Rain , Thunderstorm    
Averages and records for this station are not official NWS values.
T = Trace of Precipitation, MM = Missing Value Source: NWS Daily Summary

Daily Weather History Graph

Daily Weather History Graph

Search for Another Location

Airport or City:

Trip Planner

Search our weather history database for the weather conditions in past years. The results will help you decide how hot, cold, wet, or windy it might be!

Date:

Astronomy

Oct. 05, 2012 Rise Set
Actual Time 6:55 AM CDT 6:32 PM CDT
Civil Twilight 6:29 AM CDT 6:58 PM CDT
Nautical Twilight 5:59 AM CDT 7:28 PM CDT
Astronomical Twilight 5:28 AM CDT 7:59 PM CDT
Moon 10:00 PM CDT (10/5) 11:58 AM CDT (10/5)
Length of Visible Light 12h 29m
Length of Day
11h 36m
Waning Gibbous, 74% of the Moon is Illuminated
Oct 5
Waning Gibbous
Oct 8
Last Quarter
Oct 15
New
Oct 21
First Quarter
Oct 29
Full

Hourly Weather History & Observations

Time (CDT) Temp. Windchill Dew Point Humidity Pressure Visibility Wind Dir Wind Speed Gust Speed Precip Events Conditions
12:15 AM 62.6 °F - 57.2 °F 82% 30.15 in 10.0 mi Calm Calm - N/A   Clear
12:35 AM 60.8 °F - 57.2 °F 88% 30.15 in 10.0 mi Calm Calm - N/A   Clear
12:55 AM 60.8 °F - 57.2 °F 88% 30.15 in 10.0 mi Calm Calm - N/A   Clear
1:15 AM 64.4 °F - 55.4 °F 73% 30.15 in 10.0 mi NW 4.6 mph - N/A   Clear
1:35 AM 62.6 °F - 55.4 °F 77% 30.17 in 10.0 mi NW 4.6 mph - N/A   Clear
1:55 AM 59.0 °F - 53.6 °F 82% 30.17 in 10.0 mi NNW 4.6 mph - N/A   Clear
2:15 AM 59.0 °F - 51.8 °F 77% 30.17 in 10.0 mi NNW 4.6 mph - N/A   Clear
2:35 AM 57.2 °F - 51.8 °F 82% 30.16 in 10.0 mi North 4.6 mph - N/A   Clear
2:55 AM 55.4 °F - 51.8 °F 88% 30.16 in 10.0 mi Calm Calm - N/A   Clear
3:15 AM 55.4 °F - 51.8 °F 88% 30.16 in 10.0 mi NNW 3.5 mph - N/A   Clear
3:35 AM 55.4 °F - 51.8 °F 88% 30.17 in 10.0 mi NW 4.6 mph - N/A   Clear
3:55 AM 55.4 °F - 51.8 °F 88% 30.18 in 10.0 mi Calm Calm - N/A   Clear
4:15 AM 53.6 °F - 51.8 °F 94% 30.18 in 10.0 mi North 3.5 mph - N/A   Clear
4:35 AM 53.6 °F - 51.8 °F 94% 30.18 in 10.0 mi Calm Calm - N/A   Clear
4:55 AM 53.6 °F - 51.8 °F 94% 30.18 in 10.0 mi Calm Calm - N/A   Clear
5:15 AM 53.6 °F - 51.8 °F 94% 30.18 in 10.0 mi Calm Calm - N/A   Clear
5:35 AM 53.6 °F - 50.0 °F 88% 30.18 in 10.0 mi Calm Calm - N/A   Clear
5:55 AM 51.8 °F - 50.0 °F 94% 30.18 in 10.0 mi Calm Calm - N/A   Clear
6:15 AM 51.8 °F - 50.0 °F 94% 30.18 in 10.0 mi Calm Calm - N/A   Scattered Clouds
6:35 AM 51.8 °F - 50.0 °F 94% 30.19 in 10.0 mi NNW 4.6 mph - N/A   Mostly Cloudy
6:50 AM 53.6 °F - 50.0 °F 88% 30.18 in 20.0 mi North 5.8 mph - N/A   Scattered Clouds
7:55 AM 53.6 °F - 51.8 °F 94% 30.17 in 20.0 mi North 5.8 mph - N/A   Scattered Clouds
8:55 AM 55.4 °F - 48.2 °F 77% 30.20 in 20.0 mi North 8.1 mph - N/A   Mostly Cloudy
9:55 AM 57.2 °F - 48.2 °F 72% 30.18 in 20.0 mi North 11.5 mph - N/A   Mostly Cloudy
10:55 AM 57.2 °F - 48.2 °F 72% 30.17 in 20.0 mi North 6.9 mph - N/A   Mostly Cloudy
11:55 AM 60.8 °F - 48.2 °F 63% 30.14 in 20.0 mi North 6.9 mph - N/A   Mostly Cloudy
12:53 PM 59.0 °F - 48.2 °F 67% 30.12 in 20.0 mi NNE 6.9 mph - N/A   Overcast
1:56 PM 57.2 °F - 50.0 °F 77% 30.12 in 15.0 mi North 8.1 mph - N/A Rain Light Rain
2:54 PM 55.4 °F - 51.8 °F 88% 30.09 in 15.0 mi North 8.1 mph - N/A   Overcast
3:01 PM 55.4 °F - 51.8 °F 88% 30.09 in 15.0 mi NNW 9.2 mph - N/A   Overcast
3:56 PM 51.8 °F - 48.2 °F 88% 30.09 in 7.0 mi NNW 15.0 mph - N/A Rain Light Rain
4:54 PM 48.2 °F - 46.4 °F 93% 30.12 in 7.0 mi North 18.4 mph - N/A Rain Light Rain
5:54 PM 46.4 °F 39.8 °F 46.4 °F 100% 30.13 in 10.0 mi North 16.1 mph - N/A Rain Light Rain
6:35 PM 44.6 °F 40.2 °F 44.6 °F 100% 30.15 in 10.0 mi North 8.1 mph - 0.02 in Rain Rain
6:55 PM 46.4 °F 42.4 °F 44.6 °F 93% 30.15 in 10.0 mi North 8.1 mph - 0.04 in Rain Light Rain
7:15 PM 44.6 °F 38.1 °F 42.8 °F 93% 30.17 in 10.0 mi North 13.8 mph 20.7 mph 0.04 in Rain Light Rain
7:35 PM 44.6 °F 38.4 °F 42.8 °F 93% 30.17 in 10.0 mi North 12.7 mph 16.1 mph N/A Rain Light Rain
7:55 PM 44.6 °F 39.7 °F 42.8 °F 93% 30.17 in 10.0 mi North 9.2 mph - 0.04 in Rain Light Rain
8:15 PM 44.6 °F 39.2 °F 42.8 °F 93% 30.18 in 5.0 mi North 10.4 mph - 0.06 in Rain , Thunderstorm Thunderstorms and Rain
8:35 PM 44.6 °F 39.2 °F 42.8 °F 93% 30.19 in 10.0 mi North 10.4 mph - 0.09 in Rain Light Rain
8:55 PM 42.8 °F 36.6 °F 41.0 °F 93% 30.17 in 10.0 mi North 11.5 mph 16.1 mph 0.09 in Rain Light Rain
9:15 PM 42.8 °F 38.0 °F 41.0 °F 93% 30.18 in 10.0 mi North 8.1 mph - N/A   Light Drizzle
9:35 PM 42.8 °F 38.6 °F 41.0 °F 93% 30.18 in 2.5 mi North 6.9 mph - 0.10 in Rain Light Rain
9:55 PM 42.8 °F 39.3 °F 42.8 °F 100% 30.18 in 10.0 mi North 5.8 mph - 0.11 in Rain Rain
10:15 PM 42.8 °F 38.6 °F 42.8 °F 100% 30.20 in 10.0 mi North 6.9 mph - N/A   Overcast
10:35 PM 42.8 °F 40.1 °F 42.8 °F 100% 30.19 in 10.0 mi North 4.6 mph - N/A   Overcast
10:55 PM 42.8 °F 41.1 °F 42.8 °F 100% 30.20 in 10.0 mi NNW 3.5 mph - N/A   Overcast
11:15 PM 42.8 °F - 41.0 °F 93% 30.21 in 10.0 mi Calm Calm - N/A   Mostly Cloudy
11:35 PM 42.8 °F - 41.0 °F 93% 30.19 in 10.0 mi Calm Calm - N/A   Unknown
11:55 PM 42.8 °F 41.1 °F 41.0 °F 93% 30.20 in 10.0 mi NW 3.5 mph - N/A   Mostly Cloudy